Location: Borgo
(42.3939°N, 9.2791°E)
Time: 03:28:50
(UTC+00:00)

Cosmos 2278 Rocket - Visible Passes

Search period start: 13 May 2021 00:00
Search period end: 23 May 2021 00:00
Orbit: 843 x 844 km, 71.0° (Epoch: 12 May)

Date Brightness Start Highest point End Pass type
(mag) Time Alt. Az. Time Alt. Az. Time Alt. Az.
13 May 2.2 19:49:01 10° S 19:54:32 57° ESE 20:00:05 10° NNE visible
13 May 4.4 21:34:31 10° WSW 21:38:59 24° NW 21:43:30 10° N visible
14 May 2.3 19:34:28 10° S 19:39:58 55° ESE 19:45:29 10° NNE visible
14 May 4.4 21:19:50 10° WSW 21:24:23 24° NW 21:28:58 10° N visible
15 May 2.3 19:19:57 10° S 19:25:24 52° ESE 19:30:53 10° NNE visible
15 May 4.4 21:05:09 10° WSW 21:09:47 25° NW 21:14:27 10° N visible
16 May 2.4 19:05:24 10° S 19:10:49 50° ESE 19:16:17 10° NE visible
16 May 4.4 20:50:29 10° WSW 20:55:10 26° NW 20:59:54 10° N visible
17 May 4.4 20:35:48 10° WSW 20:40:34 27° NW 20:45:22 10° N visible
18 May 4.4 20:21:09 10° WSW 20:25:58 28° NW 20:30:49 10° N visible
19 May 4.3 20:06:29 10° WSW 20:11:22 29° NW 20:16:17 10° N visible
20 May 4.9 03:15:30 10° N 03:20:09 25° NE 03:24:48 10° ESE visible
20 May 4.3 19:51:49 10° WSW 19:56:46 30° NW 20:01:44 10° N visible
21 May 4.9 03:00:58 10° N 03:05:33 25° NE 03:10:07 10° ESE visible
21 May 4.3 19:37:09 10° WSW 19:42:10 32° NW 19:47:12 10° N visible
22 May 4.9 02:46:25 10° N 02:50:56 24° NE 02:55:25 10° ESE visible
22 May 4.3 19:22:31 10° WSW 19:27:34 33° NW 19:32:39 10° N visible
